Weather History for Kingston, Jamaica

Change the Weather History Date:

Tuesday, January 21, 2014

  Actual Average Record
Temperature  
Mean Temperature 80 °F -  
Max Temperature 87 °F 84 °F 89 °F (2007)
Min Temperature 74 °F 74 °F 69 °F (2009)
Cooling Degree Days 16    
Growing Degree Days 30 (Base 50)    
Moisture  
Dew Point 71 °F    
Average Humidity 70    
Maximum Humidity 83    
Minimum Humidity 56    
Precipitation  
Precipitation 0.00 in - - ()
Sea Level Pressure  
Sea Level Pressure 29.94 in    
Wind  
Wind Speed 10 mph ()    
Max Wind Speed 22 mph    
Max Gust Speed -    
Visibility 8.0 miles    
Events Thunderstorm    
Averages and records for this station are not official NWS values.
T = Trace of Precipitation, MM = Missing Value Source: Averaged Metar Reports

Daily Weather History Graph

Daily Weather History Graph

Search for Another Location

Airport:

Trip Planner

Search our weather history database for the weather conditions in past years. The results will help you decide how hot, cold, wet, or windy it might be!

Date:

Astronomy

Jan. 21, 2014 Rise Set
Actual Time 6:41 AM EST 5:55 PM EST
Civil Twilight 6:18 AM EST 6:18 PM EST
Nautical Twilight 5:51 AM EST 6:45 PM EST
Astronomical Twilight 5:25 AM EST 7:11 PM EST
Moon 10:33 PM EST (1/21) 9:59 AM EST (1/21)
Length of Visible Light 12h 00m
Length of Day
11h 14m
Waning Gibbous, 75% of the Moon is Illuminated
Jan 21
Waning Gibbous
Jan 24
Last Quarter
Jan 30
New
Feb 6
First Quarter
Feb 14
Full

Hourly Weather History & Observations

Time (EST) Temp. Heat Index Dew Point Humidity Pressure Visibility Wind Dir Wind Speed Gust Speed Precip Events Conditions
12:00 AM 77.0 °F - 69.8 °F 78% 29.98 in 6.2 mi NW 6.9 mph - N/A   Partly Cloudy
1:00 AM 78 °F - 70 °F 69% 29.97 in 12 mi NNW 10.4 mph - -   Haze
1:00 AM 77.0 °F - 69.8 °F 78% 29.95 in 6.2 mi NNW 10.4 mph - N/A   Partly Cloudy
2:00 AM 77.0 °F - 68.0 °F 74% 29.95 in 6.2 mi North 9.2 mph - N/A   Partly Cloudy
3:00 AM 77.0 °F - 69.8 °F 78% 29.92 in 6.2 mi North 5.8 mph - N/A   Partly Cloudy
4:00 AM 76 °F - 69 °F 73% 29.94 in 12 mi NW 5.8 mph - -   Haze
4:00 AM 77.0 °F - 69.8 °F 78% 29.92 in 6.2 mi NW 5.8 mph - N/A   Partly Cloudy
5:00 AM 75.2 °F - 68.0 °F 78% 29.95 in 6.2 mi NNW 6.9 mph - N/A   Partly Cloudy
6:00 AM 77.0 °F - 68.0 °F 74% 29.95 in 6.2 mi North 6.9 mph - N/A   Partly Cloudy
7:00 AM 76 °F - 69 °F 73% 29.98 in 16 mi North 5.8 mph - -   Haze
7:00 AM 75.2 °F - 69.8 °F 83% 29.98 in 6.2 mi North 5.8 mph - N/A   Partly Cloudy
8:00 AM 78.8 °F - 68.0 °F 69% 29.98 in 6.2 mi North 6.9 mph - N/A   Partly Cloudy
9:00 AM 80.6 °F 83.2 °F 68.0 °F 65% 30.01 in 6.2 mi North 6.9 mph - N/A   Partly Cloudy
10:00 AM 83 °F - 70 °F 56% 30.01 in 12 mi SSE 8.1 mph - -   Haze
10:00 AM 82.4 °F 86.3 °F 69.8 °F 66% 30.01 in 6.2 mi SSE 8.1 mph - N/A   Partly Cloudy
11:00 AM 86.0 °F 91.8 °F 71.6 °F 62% 29.98 in 6.2 mi SE 19.6 mph - N/A   Partly Cloudy
12:00 PM 86.0 °F 91.8 °F 71.6 °F 62% 29.95 in 6.2 mi SE 19.6 mph - N/A   Partly Cloudy
1:00 PM 86 °F - 75 °F 62% 29.92 in 14 mi SSE 21.9 mph - -   Haze
1:00 PM 86.0 °F 95.1 °F 75.2 °F 70% 29.92 in 6.2 mi SSE 21.9 mph - N/A   Scattered Clouds
2:00 PM 84.2 °F 89.6 °F 71.6 °F 66% 29.89 in 6.2 mi SE 20.7 mph - N/A   Mostly Cloudy
3:00 PM 84.2 °F 90.9 °F 73.4 °F 70% 29.89 in 6.2 mi SSE 19.6 mph - N/A   Scattered Clouds
4:00 PM 84 °F - 72 °F 59% 29.89 in 16 mi SSE 17.3 mph - -   Haze
4:00 PM 84.2 °F 89.6 °F 71.6 °F 66% 29.89 in 6.2 mi SSE 17.3 mph - N/A   Partly Cloudy
5:00 PM 82.4 °F 88.2 °F 73.4 °F 74% 29.89 in 6.2 mi SSE 16.1 mph - N/A   Partly Cloudy
6:00 PM 80.6 °F 85.4 °F 73.4 °F 79% 29.89 in 6.2 mi SE 17.3 mph - N/A   Partly Cloudy
7:00 PM 81 °F - 73 °F 72% 29.93 in 12 mi SE 13.8 mph - -   Haze
7:00 PM 80.6 °F 85.4 °F 73.4 °F 79% 29.92 in 6.2 mi SE 13.8 mph - N/A   Partly Cloudy
8:00 PM 80.6 °F 84.6 °F 71.6 °F 74% 29.92 in 6.2 mi ESE 13.8 mph - N/A Thunderstorm Partly Cloudy
9:00 PM 80.6 °F 83.9 °F 69.8 °F 70% 29.95 in 6.2 mi SE 11.5 mph - N/A   Partly Cloudy
10:00 PM 80 °F - 69 °F 60% 29.98 in 12 mi SE 10.4 mph - -   Haze
10:00 PM 80.6 °F 83.2 °F 68.0 °F 65% 29.98 in 6.2 mi SE 10.4 mph - N/A   Partly Cloudy
11:00 PM 80.6 °F 83.9 °F 69.8 °F 70% 29.95 in 6.2 mi SE 9.2 mph - N/A   Partly Cloudy